Track STARLINK-1414 now! 10-day predictions STARLINK-1414 is classified as:
1 45690U 20035AK 22138.55462676 .00002235 00000-0 17249-3 0 9999 2 45690 52.9980 181.6772 0001641 54.0349 306.0791 15.05585957109150